Time,TemperatureF,DewpointF,PressureIn,WindDirection,WindDirectionDegrees,WindSpeedMPH,WindSpeedGustMPH,Humidity,HourlyPrecipIn,Conditions,Clouds,dailyrainin,SoftwareType,DateUTC
2013-03-16 00:00:00,45.0,35.0,29.76,NW,315,7.0,8.0,66,0.00,,,0.00,Rainwise IP-100,2013-03-16 04:00:00,
2013-03-16 00:05:00,45.0,35.0,29.76,West,270,1.0,8.0,67,0.00,,,0.00,Rainwise IP-100,2013-03-16 04:05:00,
2013-03-16 00:06:00,44.0,33.0,29.76,NE,45,1.0,6.0,67,0.00,,,0.00,Rainwise IP-100,2013-03-16 04:06:00,
2013-03-16 00:11:00,44.0,33.0,29.77,NNW,337,1.0,9.0,67,0.00,,,0.00,Rainwise IP-100,2013-03-16 04:11:00,
2013-03-16 00:16:00,44.0,35.0,29.77,North,360,0.0,6.0,69,0.00,,,0.00,Rainwise IP-100,2013-03-16 04:16:00,
2013-03-16 00:21:00,44.0,35.0,29.78,West,270,0.0,4.0,69,0.00,,,0.00,Rainwise IP-100,2013-03-16 04:21:00,
2013-03-16 00:26:00,44.0,35.0,29.78,North,360,3.0,5.0,69,0.00,,,0.00,Rainwise IP-100,2013-03-16 04:26:00,
2013-03-16 00:31:00,44.0,33.0,29.78,NW,315,7.0,9.0,67,0.00,,,0.00,Rainwise IP-100,2013-03-16 04:31:00,
2013-03-16 00:36:00,44.0,33.0,29.78,NW,315,6.0,9.0,67,0.00,,,0.00,Rainwise IP-100,2013-03-16 04:36:00,
2013-03-16 00:41:00,44.0,33.0,29.77,NW,315,8.0,14.0,66,0.00,,,0.00,Rainwise IP-100,2013-03-16 04:41:00,
2013-03-16 00:46:00,44.0,33.0,29.77,NNE,22,5.0,9.0,64,0.00,,,0.00,Rainwise IP-100,2013-03-16 04:46:00,
2013-03-16 00:51:00,44.0,33.0,29.77,NW,315,9.0,9.0,65,0.00,,,0.00,Rainwise IP-100,2013-03-16 04:51:00,
2013-03-16 00:56:00,44.0,33.0,29.77,NW,315,2.0,9.0,65,0.00,,,0.00,Rainwise IP-100,2013-03-16 04:56:00,
2013-03-16 01:01:00,44.0,33.0,29.77,WNW,292,0.0,8.0,66,0.00,,,0.00,Rainwise IP-100,2013-03-16 05:01:00,
2013-03-16 01:06:00,43.0,32.0,29.77,NW,315,2.0,6.0,66,0.00,,,0.00,Rainwise IP-100,2013-03-16 05:06:00,
2013-03-16 01:11:00,43.0,33.0,29.78,NW,315,3.0,4.0,67,0.00,,,0.00,Rainwise IP-100,2013-03-16 05:11:00,
2013-03-16 01:16:00,43.0,33.0,29.78,NNW,337,6.0,8.0,67,0.00,,,0.00,Rainwise IP-100,2013-03-16 05:16:00,
2013-03-16 01:21:00,43.0,33.0,29.78,North,360,4.0,7.0,69,0.00,,,0.00,Rainwise IP-100,2013-03-16 05:21:00,
2013-03-16 01:26:00,43.0,33.0,29.78,North,360,6.0,13.0,69,0.00,,,0.00,Rainwise IP-100,2013-03-16 05:26:00,
2013-03-16 01:31:00,43.0,35.0,29.78,North,360,6.0,10.0,70,0.00,,,0.00,Rainwise IP-100,2013-03-16 05:31:00,
2013-03-16 01:36:00,42.0,33.0,29.78,North,360,8.0,10.0,70,0.00,,,0.00,Rainwise IP-100,2013-03-16 05:36:00,
2013-03-16 01:41:00,42.0,33.0,29.78,North,360,3.0,10.0,71,0.00,,,0.00,Rainwise IP-100,2013-03-16 05:41:00,
2013-03-16 01:46:00,42.0,35.0,29.78,NW,315,3.0,9.0,73,0.00,,,0.00,Rainwise IP-100,2013-03-16 05:46:00,
2013-03-16 01:51:00,42.0,35.0,29.78,NNW,337,4.0,12.0,73,0.00,,,0.00,Rainwise IP-100,2013-03-16 05:51:00,
2013-03-16 01:56:00,42.0,33.0,29.78,North,360,5.0,12.0,72,0.00,,,0.00,Rainwise IP-100,2013-03-16 05:56:00,
2013-03-16 02:01:00,42.0,33.0,29.79,NNW,337,6.0,10.0,71,0.00,,,0.00,Rainwise IP-100,2013-03-16 06:01:00,
2013-03-16 02:06:00,41.0,33.0,29.79,North,360,2.0,7.0,73,0.00,,,0.00,Rainwise IP-100,2013-03-16 06:06:00,
2013-03-16 02:11:00,41.0,33.0,29.80,North,360,0.0,3.0,74,0.00,,,0.00,Rainwise IP-100,2013-03-16 06:11:00,
2013-03-16 02:16:00,41.0,35.0,29.80,North,360,0.0,3.0,75,0.00,,,0.00,Rainwise IP-100,2013-03-16 06:16:00,
2013-03-16 02:21:00,40.0,33.0,29.80,East,90,0.0,4.0,76,0.00,,,0.00,Rainwise IP-100,2013-03-16 06:21:00,
2013-03-16 02:26:00,40.0,33.0,29.80,NNE,22,0.0,6.0,77,0.00,,,0.00,Rainwise IP-100,2013-03-16 06:26:00,
2013-03-16 02:31:00,40.0,35.0,29.81,North,360,0.0,5.0,78,0.00,,,0.00,Rainwise IP-100,2013-03-16 06:31:00,
2013-03-16 02:36:00,40.0,35.0,29.81,North,360,4.0,6.0,78,0.00,,,0.00,Rainwise IP-100,2013-03-16 06:36:00,
2013-03-16 02:41:00,40.0,35.0,29.81,North,360,4.0,9.0,78,0.00,,,0.00,Rainwise IP-100,2013-03-16 06:41:00,
2013-03-16 02:46:00,40.0,33.0,29.81,North,360,6.0,8.0,76,0.00,,,0.00,Rainwise IP-100,2013-03-16 06:46:00,
2013-03-16 02:51:00,40.0,33.0,29.81,NW,315,2.0,8.0,76,0.00,,,0.00,Rainwise IP-100,2013-03-16 06:51:00,
2013-03-16 02:56:00,40.0,33.0,29.81,West,270,1.0,6.0,76,0.00,,,0.00,Rainwise IP-100,2013-03-16 06:56:00,
2013-03-16 03:01:00,39.0,33.0,29.81,West,270,0.0,3.0,78,0.00,,,0.00,Rainwise IP-100,2013-03-16 07:01:00,
2013-03-16 03:06:00,39.0,33.0,29.81,North,360,3.0,6.0,80,0.00,,,0.00,Rainwise IP-100,2013-03-16 07:06:00,
2013-03-16 03:11:00,38.0,33.0,29.82,North,360,1.0,6.0,81,0.00,,,0.00,Rainwise IP-100,2013-03-16 07:11:00,
2013-03-16 03:16:00,38.0,33.0,29.82,North,360,1.0,3.0,81,0.00,,,0.00,Rainwise IP-100,2013-03-16 07:16:00,
2013-03-16 03:21:00,38.0,32.0,29.83,NNW,337,2.0,6.0,80,0.00,,,0.00,Rainwise IP-100,2013-03-16 07:21:00,
2013-03-16 03:26:00,38.0,32.0,29.83,NNW,337,1.0,6.0,80,0.00,,,0.00,Rainwise IP-100,2013-03-16 07:26:00,
2013-03-16 03:31:00,38.0,32.0,29.83,North,360,1.0,4.0,78,0.00,,,0.00,Rainwise IP-100,2013-03-16 07:31:00,
2013-03-16 03:36:00,38.0,31.0,29.83,North,360,5.0,6.0,76,0.00,,,0.00,Rainwise IP-100,2013-03-16 07:36:00,
2013-03-16 03:41:00,38.0,32.0,29.83,NNE,22,2.0,6.0,79,0.00,,,0.00,Rainwise IP-100,2013-03-16 07:41:00,
2013-03-16 03:46:00,37.0,32.0,29.83,North,360,3.0,4.0,81,0.00,,,0.00,Rainwise IP-100,2013-03-16 07:46:00,
2013-03-16 03:51:00,37.0,32.0,29.83,North,360,2.0,5.0,81,0.00,,,0.00,Rainwise IP-100,2013-03-16 07:51:00,
2013-03-16 03:56:00,37.0,32.0,29.83,NE,45,1.0,5.0,81,0.00,,,0.00,Rainwise IP-100,2013-03-16 07:56:00,
2013-03-16 04:01:00,37.0,32.0,29.84,ENE,67,2.0,5.0,82,0.00,,,0.00,Rainwise IP-100,2013-03-16 08:01:00,
2013-03-16 04:06:00,37.0,32.0,29.84,ENE,67,2.0,4.0,82,0.00,,,0.00,Rainwise IP-100,2013-03-16 08:06:00,
2013-03-16 04:11:00,37.0,32.0,29.84,ENE,67,2.0,2.0,82,0.00,,,0.00,Rainwise IP-100,2013-03-16 08:11:00,
2013-03-16 04:16:00,37.0,32.0,29.84,NNE,22,2.0,3.0,82,0.00,,,0.00,Rainwise IP-100,2013-03-16 08:16:00,
2013-03-16 04:21:00,37.0,32.0,29.84,North,360,4.0,5.0,84,0.00,,,0.00,Rainwise IP-100,2013-03-16 08:21:00,
2013-03-16 04:26:00,36.0,31.0,29.84,NW,315,5.0,6.0,82,0.00,,,0.00,Rainwise IP-100,2013-03-16 08:26:00,
2013-03-16 04:32:00,37.0,32.0,29.84,North,360,1.0,3.0,81,0.00,,,0.00,Rainwise IP-100,2013-03-16 08:32:00,
2013-03-16 04:37:00,36.0,31.0,29.84,NW,315,4.0,6.0,81,0.00,,,0.00,Rainwise IP-100,2013-03-16 08:37:00,
2013-03-16 04:42:00,36.0,31.0,29.84,NNW,337,5.0,9.0,81,0.00,,,0.00,Rainwise IP-100,2013-03-16 08:42:00,
2013-03-16 04:47:00,36.0,31.0,29.84,NW,315,3.0,6.0,80,0.00,,,0.00,Rainwise IP-100,2013-03-16 08:47:00,
2013-03-16 04:52:00,36.0,31.0,29.84,NNE,22,2.0,6.0,79,0.00,,,0.00,Rainwise IP-100,2013-03-16 08:52:00,
2013-03-16 04:57:00,36.0,31.0,29.84,NE,45,1.0,5.0,80,0.00,,,0.00,Rainwise IP-100,2013-03-16 08:57:00,
2013-03-16 05:02:00,36.0,31.0,29.84,NE,45,1.0,3.0,79,0.00,,,0.00,Rainwise IP-100,2013-03-16 09:02:00,
2013-03-16 05:07:00,36.0,31.0,29.84,North,360,3.0,6.0,79,0.00,,,0.00,Rainwise IP-100,2013-03-16 09:07:00,
2013-03-16 05:12:00,35.0,29.0,29.84,NW,315,6.0,6.0,79,0.00,,,0.00,Rainwise IP-100,2013-03-16 09:12:00,
2013-03-16 05:17:00,36.0,29.0,29.84,NW,315,3.0,9.0,76,0.00,,,0.00,Rainwise IP-100,2013-03-16 09:17:00,
2013-03-16 05:22:00,36.0,29.0,29.84,WNW,292,4.0,6.0,74,0.00,,,0.00,Rainwise IP-100,2013-03-16 09:22:00,
2013-03-16 05:27:00,36.0,29.0,29.84,NNE,22,0.0,6.0,76,0.00,,,0.00,Rainwise IP-100,2013-03-16 09:27:00,
2013-03-16 05:32:00,36.0,29.0,29.85,NNE,22,3.0,4.0,77,0.00,,,0.00,Rainwise IP-100,2013-03-16 09:32:00,
2013-03-16 05:37:00,35.0,28.0,29.85,North,360,6.0,7.0,76,0.00,,,0.00,Rainwise IP-100,2013-03-16 09:37:00,
2013-03-16 05:42:00,36.0,29.0,29.85,NNE,22,4.0,9.0,74,0.00,,,0.00,Rainwise IP-100,2013-03-16 09:42:00,
2013-03-16 05:47:00,35.0,26.0,29.85,NW,315,6.0,7.0,72,0.00,,,0.00,Rainwise IP-100,2013-03-16 09:47:00,
2013-03-16 05:52:00,35.0,26.0,29.86,ENE,67,6.0,7.0,72,0.00,,,0.00,Rainwise IP-100,2013-03-16 09:52:00,
2013-03-16 05:57:00,35.0,26.0,29.86,North,360,3.0,7.0,71,0.00,,,0.00,Rainwise IP-100,2013-03-16 09:57:00,
2013-03-16 06:02:00,35.0,26.0,29.86,NE,45,2.0,8.0,71,0.00,,,0.00,Rainwise IP-100,2013-03-16 10:02:00,
2013-03-16 06:07:00,35.0,26.0,29.86,NE,45,2.0,4.0,72,0.00,,,0.00,Rainwise IP-100,2013-03-16 10:07:00,
2013-03-16 06:12:00,35.0,26.0,29.86,North,360,4.0,5.0,71,0.00,,,0.00,Rainwise IP-100,2013-03-16 10:12:00,
2013-03-16 06:17:00,35.0,26.0,29.86,North,360,4.0,7.0,72,0.00,,,0.00,Rainwise IP-100,2013-03-16 10:17:00,
2013-03-16 06:22:00,35.0,28.0,29.86,NNW,337,9.0,9.0,73,0.00,,,0.00,Rainwise IP-100,2013-03-16 10:22:00,
2013-03-16 06:27:00,35.0,26.0,29.86,North,360,4.0,9.0,71,0.00,,,0.00,Rainwise IP-100,2013-03-16 10:27:00,
2013-03-16 06:32:00,35.0,26.0,29.86,NE,45,5.0,9.0,70,0.00,,,0.00,Rainwise IP-100,2013-03-16 10:32:00,
2013-03-16 06:37:00,35.0,26.0,29.86,North,360,4.0,8.0,69,0.00,,,0.00,Rainwise IP-100,2013-03-16 10:37:00,
2013-03-16 06:42:00,35.0,26.0,29.86,North,360,4.0,9.0,68,0.00,,,0.00,Rainwise IP-100,2013-03-16 10:42:00,
2013-03-16 06:47:00,35.0,26.0,29.86,NW,315,3.0,7.0,69,0.00,,,0.00,Rainwise IP-100,2013-03-16 10:47:00,
2013-03-16 06:52:00,35.0,26.0,29.86,North,360,4.0,5.0,69,0.00,,,0.00,Rainwise IP-100,2013-03-16 10:52:00,
2013-03-16 06:57:00,35.0,26.0,29.86,North,360,4.0,6.0,69,0.00,,,0.00,Rainwise IP-100,2013-03-16 10:57:00,
2013-03-16 07:02:00,35.0,26.0,29.85,North,360,3.0,6.0,71,0.00,,,0.00,Rainwise IP-100,2013-03-16 11:02:00,
2013-03-16 07:07:00,35.0,26.0,29.85,North,360,3.0,7.0,71,0.00,,,0.00,Rainwise IP-100,2013-03-16 11:07:00,
2013-03-16 07:12:00,35.0,26.0,29.86,NNE,22,6.0,6.0,71,0.00,,,0.00,Rainwise IP-100,2013-03-16 11:12:00,
2013-03-16 07:17:00,35.0,26.0,29.86,NNW,337,2.0,6.0,72,0.00,,,0.00,Rainwise IP-100,2013-03-16 11:17:00,
2013-03-16 07:22:00,35.0,26.0,29.86,NE,45,0.0,5.0,72,0.00,,,0.00,Rainwise IP-100,2013-03-16 11:22:00,
2013-03-16 07:27:00,35.0,28.0,29.86,NE,45,1.0,2.0,74,0.00,,,0.00,Rainwise IP-100,2013-03-16 11:27:00,
2013-03-16 07:32:00,35.0,28.0,29.87,North,360,4.0,6.0,74,0.00,,,0.00,Rainwise IP-100,2013-03-16 11:32:00,
2013-03-16 07:37:00,34.0,28.0,29.87,NW,315,1.0,7.0,75,0.00,,,0.00,Rainwise IP-100,2013-03-16 11:37:00,
2013-03-16 07:42:00,34.0,28.0,29.88,North,360,3.0,5.0,75,0.00,,,0.00,Rainwise IP-100,2013-03-16 11:42:00,
2013-03-16 07:47:00,35.0,28.0,29.88,North,360,3.0,6.0,73,0.00,,,0.00,Rainwise IP-100,2013-03-16 11:47:00,
2013-03-16 07:52:00,35.0,28.0,29.88,NE,45,3.0,6.0,74,0.00,,,0.00,Rainwise IP-100,2013-03-16 11:52:00,
2013-03-16 07:57:00,35.0,26.0,29.88,NNE,22,2.0,6.0,72,0.00,,,0.00,Rainwise IP-100,2013-03-16 11:57:00,
2013-03-16 08:02:00,35.0,28.0,29.88,North,360,2.0,4.0,74,0.00,,,0.00,Rainwise IP-100,2013-03-16 12:02:00,
2013-03-16 08:07:00,35.0,26.0,29.88,North,360,1.0,6.0,72,0.00,,,0.00,Rainwise IP-100,2013-03-16 12:07:00,
2013-03-16 08:12:00,35.0,26.0,29.88,NNE,22,0.0,6.0,72,0.00,,,0.00,Rainwise IP-100,2013-03-16 12:12:00,
2013-03-16 08:17:00,35.0,28.0,29.88,North,360,3.0,5.0,74,0.00,,,0.00,Rainwise IP-100,2013-03-16 12:17:00,
2013-03-16 08:22:00,35.0,26.0,29.88,NE,45,3.0,7.0,72,0.00,,,0.00,Rainwise IP-100,2013-03-16 12:22:00,
2013-03-16 08:27:00,35.0,28.0,29.88,North,360,2.0,8.0,73,0.00,,,0.00,Rainwise IP-100,2013-03-16 12:27:00,
2013-03-16 08:32:00,35.0,26.0,29.88,North,360,6.0,6.0,71,0.00,,,0.00,Rainwise IP-100,2013-03-16 12:32:00,
2013-03-16 08:37:00,35.0,28.0,29.88,NNE,22,5.0,8.0,73,0.00,,,0.00,Rainwise IP-100,2013-03-16 12:37:00,
2013-03-16 08:42:00,35.0,28.0,29.88,North,360,1.0,7.0,73,0.00,,,0.00,Rainwise IP-100,2013-03-16 12:42:00,
2013-03-16 08:47:00,35.0,26.0,29.88,NE,45,6.0,6.0,72,0.00,,,0.00,Rainwise IP-100,2013-03-16 12:47:00,
2013-03-16 08:52:00,35.0,26.0,29.87,NW,315,5.0,10.0,71,0.00,,,0.00,Rainwise IP-100,2013-03-16 12:52:00,
2013-03-16 08:57:00,35.0,26.0,29.87,North,360,5.0,9.0,72,0.00,,,0.00,Rainwise IP-100,2013-03-16 12:57:00,
2013-03-16 09:02:00,35.0,26.0,29.87,NNE,22,6.0,9.0,72,0.00,,,0.00,Rainwise IP-100,2013-03-16 13:02:00,
2013-03-16 09:07:00,36.0,28.0,29.87,North,360,4.0,7.0,71,0.00,,,0.00,Rainwise IP-100,2013-03-16 13:07:00,
2013-03-16 09:12:00,36.0,28.0,29.86,North,360,6.0,9.0,70,0.00,,,0.00,Rainwise IP-100,2013-03-16 13:12:00,
2013-03-16 09:17:00,36.0,26.0,29.86,NW,315,2.0,7.0,69,0.00,,,0.00,Rainwise IP-100,2013-03-16 13:17:00,
2013-03-16 09:22:00,36.0,26.0,29.86,NNE,22,7.0,8.0,67,0.00,,,0.00,Rainwise IP-100,2013-03-16 13:22:00,
2013-03-16 09:27:00,36.0,26.0,29.86,NE,45,4.0,10.0,65,0.00,,,0.00,Rainwise IP-100,2013-03-16 13:27:00,
2013-03-16 09:32:00,36.0,26.0,29.86,NE,45,7.0,9.0,65,0.00,,,0.00,Rainwise IP-100,2013-03-16 13:32:00,
2013-03-16 09:37:00,36.0,26.0,29.86,NNW,337,7.0,8.0,65,0.00,,,0.00,Rainwise IP-100,2013-03-16 13:37:00,
2013-03-16 09:42:00,36.0,26.0,29.86,NE,45,4.0,9.0,65,0.00,,,0.00,Rainwise IP-100,2013-03-16 13:42:00,
2013-03-16 09:47:00,36.0,26.0,29.86,North,360,6.0,7.0,66,0.00,,,0.00,Rainwise IP-100,2013-03-16 13:47:00,
2013-03-16 09:52:00,36.0,26.0,29.86,NNW,337,0.0,9.0,65,0.00,,,0.00,Rainwise IP-100,2013-03-16 13:52:00,
2013-03-16 09:57:00,36.0,24.0,29.86,North,360,7.0,9.0,63,0.00,,,0.00,Rainwise IP-100,2013-03-16 13:57:00,
2013-03-16 10:02:00,36.0,24.0,29.86,ESE,112,6.0,10.0,61,0.00,,,0.00,Rainwise IP-100,2013-03-16 14:02:00,
2013-03-16 10:07:00,36.0,24.0,29.86,NW,315,3.0,10.0,61,0.00,,,0.00,Rainwise IP-100,2013-03-16 14:07:00,
2013-03-16 10:12:00,37.0,24.0,29.86,North,360,2.0,10.0,60,0.00,,,0.00,Rainwise IP-100,2013-03-16 14:12:00,
2013-03-16 10:17:00,37.0,24.0,29.86,North,360,5.0,12.0,60,0.00,,,0.00,Rainwise IP-100,2013-03-16 14:17:00,
2013-03-16 10:22:00,37.0,24.0,29.86,NNW,337,6.0,10.0,59,0.00,,,0.00,Rainwise IP-100,2013-03-16 14:22:00,
2013-03-16 10:27:00,37.0,24.0,29.86,East,90,7.0,10.0,59,0.00,,,0.00,Rainwise IP-100,2013-03-16 14:27:00,
2013-03-16 10:32:00,36.0,24.0,29.86,North,360,4.0,10.0,60,0.00,,,0.00,Rainwise IP-100,2013-03-16 14:32:00,
2013-03-16 10:37:00,36.0,24.0,29.86,ENE,67,5.0,9.0,61,0.00,,,0.00,Rainwise IP-100,2013-03-16 14:37:00,
2013-03-16 10:42:00,37.0,24.0,29.86,ESE,112,1.0,9.0,59,0.00,,,0.00,Rainwise IP-100,2013-03-16 14:42:00,
2013-03-16 10:47:00,37.0,24.0,29.86,ENE,67,5.0,7.0,59,0.00,,,0.00,Rainwise IP-100,2013-03-16 14:47:00,
2013-03-16 10:52:00,37.0,24.0,29.87,NE,45,2.0,8.0,58,0.00,,,0.00,Rainwise IP-100,2013-03-16 14:52:00,
2013-03-16 10:57:00,37.0,24.0,29.87,NE,45,3.0,8.0,59,0.00,,,0.00,Rainwise IP-100,2013-03-16 14:57:00,
2013-03-16 11:02:00,37.0,24.0,29.87,North,360,1.0,8.0,58,0.00,,,0.00,Rainwise IP-100,2013-03-16 15:02:00,
2013-03-16 11:07:00,37.0,24.0,29.87,ENE,67,0.0,6.0,61,0.00,,,0.00,Rainwise IP-100,2013-03-16 15:07:00,
2013-03-16 11:12:00,37.0,26.0,29.87,North,360,5.0,7.0,63,0.00,,,0.00,Rainwise IP-100,2013-03-16 15:12:00,
2013-03-16 11:17:00,37.0,26.0,29.87,NE,45,5.0,7.0,65,0.00,,,0.00,Rainwise IP-100,2013-03-16 15:17:00,
2013-03-16 11:22:00,36.0,26.0,29.87,ESE,112,3.0,7.0,68,0.00,,,0.00,Rainwise IP-100,2013-03-16 15:22:00,
2013-03-16 11:27:00,37.0,29.0,29.87,NE,45,6.0,6.0,72,0.00,,,0.00,Rainwise IP-100,2013-03-16 15:27:00,
2013-03-16 11:32:00,37.0,29.0,29.88,ESE,112,3.0,6.0,74,0.00,,,0.00,Rainwise IP-100,2013-03-16 15:32:00,
2013-03-16 11:37:00,36.0,29.0,29.88,North,360,1.0,8.0,77,0.00,,,0.00,Rainwise IP-100,2013-03-16 15:37:00,
2013-03-16 11:42:00,36.0,31.0,29.88,NNW,337,5.0,7.0,79,0.00,,,0.00,Rainwise IP-100,2013-03-16 15:42:00,
2013-03-16 11:47:00,36.0,31.0,29.88,WNW,292,1.0,8.0,81,0.00,,,0.00,Rainwise IP-100,2013-03-16 15:47:00,
2013-03-16 11:52:00,36.0,31.0,29.88,East,90,6.0,6.0,82,0.00,,,0.00,Rainwise IP-100,2013-03-16 15:52:00,
2013-03-16 11:57:00,35.0,31.0,29.88,SSE,157,2.0,8.0,85,0.00,,,0.00,Rainwise IP-100,2013-03-16 15:57:00,
2013-03-16 12:02:00,36.0,32.0,29.87,ESE,112,2.0,5.0,85,0.00,,,0.00,Rainwise IP-100,2013-03-16 16:02:00,
2013-03-16 12:07:00,35.0,31.0,29.87,East,90,1.0,5.0,85,0.00,,,0.00,Rainwise IP-100,2013-03-16 16:07:00,
2013-03-16 12:12:00,36.0,32.0,29.86,ENE,67,0.0,4.0,86,0.00,,,0.00,Rainwise IP-100,2013-03-16 16:12:00,
2013-03-16 12:17:00,36.0,32.0,29.86,SSE,157,4.0,8.0,84,0.00,,,0.00,Rainwise IP-100,2013-03-16 16:17:00,
2013-03-16 12:22:00,36.0,32.0,29.86,ESE,112,4.0,7.0,86,0.00,,,0.00,Rainwise IP-100,2013-03-16 16:22:00,
2013-03-16 12:27:00,36.0,32.0,29.86,SE,135,5.0,7.0,87,0.00,,,0.00,Rainwise IP-100,2013-03-16 16:27:00,
2013-03-16 12:32:00,36.0,33.0,29.86,SE,135,1.0,6.0,89,0.00,,,0.00,Rainwise IP-100,2013-03-16 16:32:00,
2013-03-16 12:37:00,35.0,32.0,29.86,South,180,3.0,7.0,91,0.00,,,0.00,Rainwise IP-100,2013-03-16 16:37:00,
2013-03-16 12:42:00,35.0,32.0,29.86,ESE,112,0.0,5.0,91,0.00,,,0.00,Rainwise IP-100,2013-03-16 16:42:00,
2013-03-16 12:47:00,35.0,32.0,29.86,SE,135,2.0,5.0,91,0.00,,,0.00,Rainwise IP-100,2013-03-16 16:47:00,
2013-03-16 12:52:00,35.0,33.0,29.85,East,90,5.0,5.0,93,0.00,,,0.00,Rainwise IP-100,2013-03-16 16:52:00,
2013-03-16 12:57:00,34.0,33.0,29.85,ENE,67,4.0,6.0,95,0.00,,,0.00,Rainwise IP-100,2013-03-16 16:57:00,
2013-03-16 13:02:00,34.0,33.0,29.86,SE,135,2.0,6.0,96,0.00,,,0.00,Rainwise IP-100,2013-03-16 17:02:00,
2013-03-16 13:07:00,33.0,32.0,29.86,NE,45,6.0,9.0,96,0.00,,,0.00,Rainwise IP-100,2013-03-16 17:07:00,
2013-03-16 13:12:00,33.0,32.0,29.87,East,90,1.0,6.0,96,0.00,,,0.00,Rainwise IP-100,2013-03-16 17:12:00,
2013-03-16 13:17:00,33.0,32.0,29.87,NE,45,1.0,4.0,96,0.00,,,0.00,Rainwise IP-100,2013-03-16 17:17:00,
2013-03-16 13:22:00,33.0,32.0,29.86,NE,45,3.0,3.0,95,0.00,,,0.00,Rainwise IP-100,2013-03-16 17:22:00,
2013-03-16 13:27:00,33.0,32.0,29.86,NE,45,1.0,6.0,95,0.00,,,0.00,Rainwise IP-100,2013-03-16 17:27:00,
2013-03-16 13:32:00,33.0,32.0,29.86,ESE,112,4.0,5.0,95,0.00,,,0.00,Rainwise IP-100,2013-03-16 17:32:00,
2013-03-16 13:37:00,32.0,31.0,29.86,East,90,5.0,6.0,95,0.00,,,0.00,Rainwise IP-100,2013-03-16 17:37:00,
2013-03-16 13:42:00,33.0,32.0,29.85,NE,45,4.0,6.0,94,0.00,,,0.00,Rainwise IP-100,2013-03-16 17:42:00,
2013-03-16 13:47:00,33.0,32.0,29.85,ENE,67,1.0,6.0,93,0.06,,,0.01,Rainwise IP-100,2013-03-16 17:47:00,
2013-03-16 13:52:00,33.0,31.0,29.86,East,90,3.0,7.0,92,0.06,,,0.01,Rainwise IP-100,2013-03-16 17:52:00,
2013-03-16 13:57:00,32.0,31.0,29.86,East,90,4.0,7.0,93,0.06,,,0.02,Rainwise IP-100,2013-03-16 17:57:00,
2013-03-16 14:02:00,32.0,31.0,29.85,NE,45,2.0,6.0,93,0.06,,,0.02,Rainwise IP-100,2013-03-16 18:02:00,
2013-03-16 14:07:00,32.0,31.0,29.85,NE,45,4.0,9.0,93,0.00,,,0.02,Rainwise IP-100,2013-03-16 18:07:00,
2013-03-16 14:12:00,32.0,31.0,29.86,NE,45,2.0,8.0,93,0.00,,,0.02,Rainwise IP-100,2013-03-16 18:12:00,
2013-03-16 14:18:00,32.0,31.0,29.86,ENE,67,5.0,6.0,92,0.00,,,0.02,Rainwise IP-100,2013-03-16 18:18:00,
2013-03-16 14:23:00,32.0,31.0,29.86,North,360,7.0,9.0,92,0.00,,,0.02,Rainwise IP-100,2013-03-16 18:23:00,
2013-03-16 14:28:00,32.0,31.0,29.86,North,360,3.0,8.0,92,0.00,,,0.02,Rainwise IP-100,2013-03-16 18:28:00,
2013-03-16 14:33:00,32.0,31.0,29.85,NNE,22,3.0,6.0,92,0.00,,,0.02,Rainwise IP-100,2013-03-16 18:33:00,
2013-03-16 14:38:00,32.0,31.0,29.85,North,360,5.0,6.0,92,0.06,,,0.03,Rainwise IP-100,2013-03-16 18:38:00,
2013-03-16 14:43:00,32.0,29.0,29.86,NNW,337,3.0,7.0,91,0.06,,,0.03,Rainwise IP-100,2013-03-16 18:43:00,
2013-03-16 14:48:00,32.0,29.0,29.86,East,90,1.0,5.0,91,0.00,,,0.03,Rainwise IP-100,2013-03-16 18:48:00,
2013-03-16 14:53:00,32.0,29.0,29.85,WNW,292,0.0,3.0,91,0.00,,,0.03,Rainwise IP-100,2013-03-16 18:53:00,
2013-03-16 14:58:00,32.0,29.0,29.85,NE,45,2.0,6.0,91,0.00,,,0.03,Rainwise IP-100,2013-03-16 18:58:00,
2013-03-16 15:03:00,32.0,29.0,29.84,ENE,67,5.0,6.0,91,0.00,,,0.03,Rainwise IP-100,2013-03-16 19:03:00,
2013-03-16 15:08:00,32.0,29.0,29.84,NE,45,1.0,6.0,91,0.00,,,0.03,Rainwise IP-100,2013-03-16 19:08:00,
2013-03-16 15:13:00,33.0,31.0,29.82,ENE,67,3.0,6.0,91,0.06,,,0.04,Rainwise IP-100,2013-03-16 19:13:00,
2013-03-16 15:18:00,33.0,31.0,29.82,ESE,112,1.0,6.0,91,0.06,,,0.04,Rainwise IP-100,2013-03-16 19:18:00,
2013-03-16 15:23:00,33.0,31.0,29.82,NW,315,4.0,7.0,91,0.06,,,0.05,Rainwise IP-100,2013-03-16 19:23:00,
2013-03-16 15:28:00,33.0,31.0,29.82,NNE,22,1.0,7.0,90,0.12,,,0.06,Rainwise IP-100,2013-03-16 19:28:00,
2013-03-16 15:33:00,33.0,31.0,29.82,NE,45,1.0,6.0,90,0.06,,,0.06,Rainwise IP-100,2013-03-16 19:33:00,
2013-03-16 15:38:00,33.0,31.0,29.82,NE,45,5.0,7.0,90,0.00,,,0.06,Rainwise IP-100,2013-03-16 19:38:00,
2013-03-16 15:43:00,33.0,31.0,29.83,ENE,67,3.0,6.0,90,0.00,,,0.06,Rainwise IP-100,2013-03-16 19:43:00,
2013-03-16 15:48:00,32.0,29.0,29.83,East,90,0.0,6.0,91,0.00,,,0.06,Rainwise IP-100,2013-03-16 19:48:00,
2013-03-16 15:53:00,32.0,29.0,29.82,East,90,4.0,7.0,91,0.00,,,0.06,Rainwise IP-100,2013-03-16 19:53:00,
2013-03-16 15:58:00,32.0,29.0,29.82,ENE,67,0.0,8.0,91,0.00,,,0.06,Rainwise IP-100,2013-03-16 19:58:00,
2013-03-16 16:03:00,32.0,29.0,29.82,East,90,6.0,6.0,91,0.00,,,0.06,Rainwise IP-100,2013-03-16 20:03:00,
2013-03-16 16:08:00,32.0,29.0,29.82,NE,45,2.0,6.0,91,0.00,,,0.06,Rainwise IP-100,2013-03-16 20:08:00,
2013-03-16 16:13:00,32.0,29.0,29.82,East,90,3.0,5.0,91,0.00,,,0.06,Rainwise IP-100,2013-03-16 20:13:00,
2013-03-16 16:18:00,32.0,29.0,29.82,East,90,5.0,5.0,91,0.00,,,0.06,Rainwise IP-100,2013-03-16 20:18:00,
2013-03-16 16:23:00,32.0,29.0,29.82,ENE,67,5.0,6.0,91,0.00,,,0.06,Rainwise IP-100,2013-03-16 20:23:00,
2013-03-16 16:28:00,32.0,29.0,29.82,ENE,67,0.0,5.0,91,0.00,,,0.06,Rainwise IP-100,2013-03-16 20:28:00,
2013-03-16 16:33:00,32.0,29.0,29.82,SSE,157,2.0,7.0,91,0.00,,,0.06,Rainwise IP-100,2013-03-16 20:33:00,
2013-03-16 16:38:00,32.0,29.0,29.82,ENE,67,6.0,7.0,91,0.06,,,0.07,Rainwise IP-100,2013-03-16 20:38:00,
2013-03-16 16:43:00,32.0,29.0,29.82,SE,135,1.0,8.0,91,0.06,,,0.07,Rainwise IP-100,2013-03-16 20:43:00,
2013-03-16 16:48:00,32.0,29.0,29.82,ENE,67,3.0,7.0,91,0.00,,,0.07,Rainwise IP-100,2013-03-16 20:48:00,
2013-03-16 16:53:00,32.0,29.0,29.82,East,90,1.0,4.0,91,0.00,,,0.07,Rainwise IP-100,2013-03-16 20:53:00,
2013-03-16 16:58:00,32.0,29.0,29.82,ESE,112,2.0,7.0,91,0.06,,,0.08,Rainwise IP-100,2013-03-16 20:58:00,
2013-03-16 17:03:00,32.0,29.0,29.83,East,90,4.0,5.0,91,0.06,,,0.08,Rainwise IP-100,2013-03-16 21:03:00,
2013-03-16 17:08:00,32.0,29.0,29.83,NE,45,0.0,5.0,91,0.00,,,0.08,Rainwise IP-100,2013-03-16 21:08:00,
2013-03-16 17:13:00,32.0,29.0,29.82,ENE,67,2.0,4.0,91,0.00,,,0.08,Rainwise IP-100,2013-03-16 21:13:00,
2013-03-16 17:18:00,32.0,29.0,29.82,ENE,67,0.0,6.0,91,0.00,,,0.08,Rainwise IP-100,2013-03-16 21:18:00,
2013-03-16 17:23:00,32.0,29.0,29.83,NE,45,2.0,5.0,91,0.00,,,0.08,Rainwise IP-100,2013-03-16 21:23:00,
2013-03-16 17:28:00,32.0,29.0,29.83,NE,45,1.0,6.0,90,0.00,,,0.08,Rainwise IP-100,2013-03-16 21:28:00,
2013-03-16 17:33:00,32.0,29.0,29.83,NE,45,0.0,6.0,90,0.00,,,0.08,Rainwise IP-100,2013-03-16 21:33:00,
2013-03-16 17:38:00,32.0,29.0,29.83,ENE,67,2.0,3.0,91,0.00,,,0.08,Rainwise IP-100,2013-03-16 21:38:00,
2013-03-16 17:43:00,32.0,29.0,29.83,NE,45,2.0,6.0,91,0.00,,,0.08,Rainwise IP-100,2013-03-16 21:43:00,
2013-03-16 17:48:00,32.0,29.0,29.83,NE,45,2.0,4.0,91,0.00,,,0.08,Rainwise IP-100,2013-03-16 21:48:00,
2013-03-16 17:53:00,32.0,29.0,29.83,NE,45,2.0,4.0,91,0.00,,,0.08,Rainwise IP-100,2013-03-16 21:53:00,
2013-03-16 17:58:00,32.0,29.0,29.83,NE,45,4.0,5.0,91,0.00,,,0.08,Rainwise IP-100,2013-03-16 21:58:00,
2013-03-16 18:03:00,32.0,29.0,29.82,NE,45,1.0,6.0,91,0.00,,,0.08,Rainwise IP-100,2013-03-16 22:03:00,
2013-03-16 18:08:00,32.0,29.0,29.82,ENE,67,0.0,6.0,91,0.00,,,0.08,Rainwise IP-100,2013-03-16 22:08:00,
2013-03-16 18:13:00,32.0,29.0,29.83,NE,45,3.0,6.0,90,0.00,,,0.08,Rainwise IP-100,2013-03-16 22:13:00,
2013-03-16 18:18:00,32.0,29.0,29.83,NE,45,2.0,6.0,91,0.00,,,0.08,Rainwise IP-100,2013-03-16 22:18:00,
2013-03-16 18:23:00,32.0,29.0,29.84,ENE,67,1.0,6.0,90,0.00,,,0.08,Rainwise IP-100,2013-03-16 22:23:00,
2013-03-16 18:28:00,32.0,29.0,29.84,ENE,67,4.0,4.0,90,0.00,,,0.08,Rainwise IP-100,2013-03-16 22:28:00,
2013-03-16 18:33:00,32.0,29.0,29.83,ESE,112,2.0,5.0,90,0.00,,,0.08,Rainwise IP-100,2013-03-16 22:33:00,
2013-03-16 18:38:00,32.0,29.0,29.83,East,90,0.0,4.0,90,0.00,,,0.08,Rainwise IP-100,2013-03-16 22:38:00,
2013-03-16 18:43:00,32.0,29.0,29.83,NE,45,4.0,4.0,90,0.00,,,0.08,Rainwise IP-100,2013-03-16 22:43:00,
2013-03-16 18:48:00,32.0,29.0,29.83,NE,45,0.0,4.0,90,0.06,,,0.09,Rainwise IP-100,2013-03-16 22:48:00,
2013-03-16 18:53:00,32.0,29.0,29.83,NE,45,0.0,3.0,90,0.06,,,0.09,Rainwise IP-100,2013-03-16 22:53:00,
2013-03-16 18:58:00,32.0,29.0,29.83,NE,45,1.0,0.0,89,0.00,,,0.09,Rainwise IP-100,2013-03-16 22:58:00,
2013-03-16 19:03:00,32.0,29.0,29.84,NE,45,0.0,2.0,90,0.00,,,0.09,Rainwise IP-100,2013-03-16 23:03:00,
2013-03-16 19:08:00,32.0,29.0,29.84,NNE,22,4.0,4.0,89,0.00,,,0.09,Rainwise IP-100,2013-03-16 23:08:00,
2013-03-16 19:13:00,32.0,29.0,29.84,North,360,0.0,6.0,89,0.00,,,0.09,Rainwise IP-100,2013-03-16 23:13:00,
2013-03-16 19:18:00,32.0,29.0,29.84,North,360,2.0,4.0,90,0.00,,,0.09,Rainwise IP-100,2013-03-16 23:18:00,
2013-03-16 19:23:00,32.0,29.0,29.84,North,360,3.0,3.0,90,0.00,,,0.09,Rainwise IP-100,2013-03-16 23:23:00,
2013-03-16 19:28:00,32.0,29.0,29.84,North,360,2.0,4.0,90,0.00,,,0.09,Rainwise IP-100,2013-03-16 23:28:00,
2013-03-16 19:33:00,32.0,29.0,29.86,North,360,3.0,6.0,90,0.00,,,0.09,Rainwise IP-100,2013-03-16 23:33:00,
2013-03-16 19:38:00,32.0,29.0,29.86,NE,45,0.0,6.0,90,0.00,,,0.09,Rainwise IP-100,2013-03-16 23:38:00,
2013-03-16 19:43:00,32.0,29.0,29.86,North,360,4.0,4.0,90,0.00,,,0.09,Rainwise IP-100,2013-03-16 23:43:00,
2013-03-16 19:48:00,32.0,29.0,29.86,North,360,1.0,6.0,90,0.00,,,0.09,Rainwise IP-100,2013-03-16 23:48:00,
2013-03-16 19:53:00,32.0,29.0,29.86,North,360,3.0,3.0,90,0.00,,,0.09,Rainwise IP-100,2013-03-16 23:53:00,
2013-03-16 19:58:00,32.0,29.0,29.86,North,360,0.0,3.0,90,0.00,,,0.09,Rainwise IP-100,2013-03-16 23:58:00,
2013-03-16 20:03:00,32.0,29.0,29.87,NNE,22,0.0,3.0,90,0.00,,,0.09,Rainwise IP-100,2013-03-17 00:03:00,
2013-03-16 20:08:00,32.0,29.0,29.87,NNE,22,0.0,2.0,89,0.00,,,0.09,Rainwise IP-100,2013-03-17 00:08:00,
2013-03-16 20:13:00,32.0,29.0,29.87,North,360,3.0,3.0,89,0.00,,,0.09,Rainwise IP-100,2013-03-17 00:13:00,
2013-03-16 20:18:00,32.0,29.0,29.87,NW,315,1.0,5.0,90,0.00,,,0.09,Rainwise IP-100,2013-03-17 00:18:00,
2013-03-16 20:23:00,32.0,29.0,29.89,NNW,337,0.0,6.0,90,0.00,,,0.09,Rainwise IP-100,2013-03-17 00:23:00,
2013-03-16 20:28:00,32.0,29.0,29.89,NNW,337,1.0,1.0,90,0.00,,,0.09,Rainwise IP-100,2013-03-17 00:28:00,
2013-03-16 20:33:00,32.0,29.0,29.88,NNW,337,1.0,2.0,90,0.00,,,0.09,Rainwise IP-100,2013-03-17 00:33:00,
2013-03-16 20:38:00,32.0,29.0,29.88,NNW,337,1.0,3.0,90,0.00,,,0.09,Rainwise IP-100,2013-03-17 00:38:00,
2013-03-16 20:43:00,32.0,29.0,29.89,NNW,337,0.0,4.0,90,0.00,,,0.09,Rainwise IP-100,2013-03-17 00:43:00,
2013-03-16 20:48:00,32.0,29.0,29.89,North,360,0.0,5.0,90,0.00,,,0.09,Rainwise IP-100,2013-03-17 00:48:00,
2013-03-16 20:53:00,32.0,29.0,29.88,North,360,0.0,2.0,91,0.00,,,0.09,Rainwise IP-100,2013-03-17 00:53:00,
2013-03-16 20:58:00,32.0,29.0,29.88,North,360,0.0,3.0,91,0.00,,,0.09,Rainwise IP-100,2013-03-17 00:58:00,
2013-03-16 21:03:00,32.0,29.0,29.90,North,360,1.0,4.0,90,0.00,,,0.09,Rainwise IP-100,2013-03-17 01:03:00,
2013-03-16 21:08:00,32.0,29.0,29.90,North,360,0.0,3.0,90,0.00,,,0.09,Rainwise IP-100,2013-03-17 01:08:00,
2013-03-16 21:13:00,32.0,29.0,29.89,North,360,5.0,5.0,90,0.00,,,0.09,Rainwise IP-100,2013-03-17 01:13:00,
2013-03-16 21:18:00,33.0,31.0,29.89,North,360,2.0,5.0,89,0.00,,,0.09,Rainwise IP-100,2013-03-17 01:18:00,
2013-03-16 21:23:00,32.0,29.0,29.90,North,360,1.0,6.0,90,0.00,,,0.09,Rainwise IP-100,2013-03-17 01:23:00,
2013-03-16 21:28:00,33.0,31.0,29.90,North,360,0.0,5.0,89,0.00,,,0.09,Rainwise IP-100,2013-03-17 01:28:00,
2013-03-16 21:34:00,33.0,31.0,29.90,North,360,0.0,2.0,89,0.00,,,0.09,Rainwise IP-100,2013-03-17 01:34:00,
2013-03-16 21:39:00,33.0,31.0,29.90,North,360,0.0,3.0,88,0.06,,,0.10,Rainwise IP-100,2013-03-17 01:39:00,
2013-03-16 21:44:00,33.0,31.0,29.90,North,360,0.0,3.0,88,0.06,,,0.10,Rainwise IP-100,2013-03-17 01:44:00,
2013-03-16 21:49:00,33.0,31.0,29.90,North,360,0.0,2.0,88,0.00,,,0.10,Rainwise IP-100,2013-03-17 01:49:00,
2013-03-16 21:54:00,33.0,31.0,29.91,NNW,337,2.0,4.0,89,0.00,,,0.10,Rainwise IP-100,2013-03-17 01:54:00,
2013-03-16 21:59:00,33.0,31.0,29.91,NNW,337,1.0,2.0,88,0.00,,,0.10,Rainwise IP-100,2013-03-17 01:59:00,
2013-03-16 22:04:00,33.0,31.0,29.92,North,360,1.0,5.0,88,0.00,,,0.10,Rainwise IP-100,2013-03-17 02:04:00,
2013-03-16 22:09:00,33.0,31.0,29.92,NNW,337,0.0,4.0,88,0.00,,,0.10,Rainwise IP-100,2013-03-17 02:09:00,
2013-03-16 22:14:00,33.0,31.0,29.92,North,360,1.0,4.0,88,0.00,,,0.10,Rainwise IP-100,2013-03-17 02:14:00,
2013-03-16 22:19:00,33.0,31.0,29.92,North,360,2.0,3.0,88,0.00,,,0.10,Rainwise IP-100,2013-03-17 02:19:00,
2013-03-16 22:24:00,33.0,31.0,29.92,North,360,0.0,3.0,88,0.00,,,0.10,Rainwise IP-100,2013-03-17 02:24:00,
2013-03-16 22:29:00,33.0,31.0,29.92,North,360,0.0,0.0,88,0.00,,,0.10,Rainwise IP-100,2013-03-17 02:29:00,
2013-03-16 22:34:00,33.0,31.0,29.93,North,360,0.0,0.0,88,0.00,,,0.10,Rainwise IP-100,2013-03-17 02:34:00,
2013-03-16 22:39:00,33.0,31.0,29.93,North,360,0.0,1.0,88,0.00,,,0.10,Rainwise IP-100,2013-03-17 02:39:00,
2013-03-16 22:44:00,33.0,31.0,29.93,North,360,0.0,4.0,87,0.00,,,0.10,Rainwise IP-100,2013-03-17 02:44:00,
2013-03-16 22:49:00,33.0,31.0,29.93,North,360,1.0,2.0,87,0.00,,,0.10,Rainwise IP-100,2013-03-17 02:49:00,
2013-03-16 22:54:00,33.0,31.0,29.94,North,360,4.0,4.0,87,0.00,,,0.10,Rainwise IP-100,2013-03-17 02:54:00,
2013-03-16 22:59:00,32.0,29.0,29.94,NNW,337,0.0,4.0,87,0.00,,,0.10,Rainwise IP-100,2013-03-17 02:59:00,
2013-03-16 23:04:00,32.0,29.0,29.94,NNW,337,1.0,1.0,88,0.00,,,0.10,Rainwise IP-100,2013-03-17 03:04:00,
2013-03-16 23:09:00,32.0,29.0,29.94,NNW,337,1.0,2.0,87,0.00,,,0.10,Rainwise IP-100,2013-03-17 03:09:00,
2013-03-16 23:14:00,32.0,29.0,29.94,NNW,337,0.0,2.0,87,0.00,,,0.10,Rainwise IP-100,2013-03-17 03:14:00,
2013-03-16 23:19:00,32.0,29.0,29.94,NNW,337,0.0,2.0,87,0.00,,,0.10,Rainwise IP-100,2013-03-17 03:19:00,
2013-03-16 23:24:00,32.0,29.0,29.94,NNW,337,2.0,2.0,87,0.00,,,0.10,Rainwise IP-100,2013-03-17 03:24:00,
2013-03-16 23:29:00,32.0,29.0,29.94,NNW,337,0.0,3.0,87,0.00,,,0.10,Rainwise IP-100,2013-03-17 03:29:00,
2013-03-16 23:34:00,32.0,29.0,29.95,NNW,337,0.0,0.0,87,0.00,,,0.10,Rainwise IP-100,2013-03-17 03:34:00,
2013-03-16 23:39:00,32.0,29.0,29.95,NNW,337,0.0,3.0,87,0.00,,,0.10,Rainwise IP-100,2013-03-17 03:39:00,
2013-03-16 23:44:00,32.0,29.0,29.95,NW,315,0.0,5.0,87,0.00,,,0.10,Rainwise IP-100,2013-03-17 03:44:00,
2013-03-16 23:49:00,32.0,29.0,29.95,NNW,337,1.0,6.0,87,0.00,,,0.10,Rainwise IP-100,2013-03-17 03:49:00,
2013-03-16 23:54:00,32.0,29.0,29.96,NW,315,6.0,6.0,87,0.00,,,0.10,Rainwise IP-100,2013-03-17 03:54:00,
2013-03-16 23:59:00,32.0,29.0,29.96,NW,315,2.0,6.0,87,0.00,,,0.10,Rainwise IP-100,2013-03-17 03:59:00,